Regional Weather Roundup
Issued by NWS

Home | Current Version | Previous Version | Graphics & Text | Print | Product List | Glossary On
Versions: 1 2 3 4 5 6 7 8 9 10 11 12 13 14 15 16 17 18 19 20 21 22 23 24 25 26 27 28 29 30 31 32 33 34 35 36 37 38 39 40 41 42 43 44 45 46 47 48 49 50
000
ASUS43 KIND 281859
RWRIN

WEATHER ROUNDUP FOR INDIANA
NATIONAL WEATHER SERVICE INDIANAPOLIS IN
300 PM EDT TUE JUL 28 2015

NOTE: "FAIR" INDICATES FEW OR NO CLOUDS BELOW 12,000 FEET WITH NO
SIGNIFICANT WEATHER AND/OR OBSTRUCTIONS TO VISIBILITY.

* - STATION DOES NOT REPORT WEATHER SUCH AS PRECIPITATION OR FOG.

+ - STATION NOT QUALITY CONTROLLED BY THE NATIONAL WEATHER SERVICE.
    USE DATA WITH CAUTION...ESPECIALLY DEWPOINT AND RELATIVE
    HUMIDITY OBSERVATIONS.

INZ001>003-010>013-019-020-282000-
NORTHWEST INDIANA

CITY           SKY/WX    TMP DP  RH WIND       PRES   REMARKS
GARY /AIRPORT/ PTSUNNY   88  72  58 MISG      29.98S
RENSSELAER +   PTSUNNY   88  73  62 SW7       29.98F HX  96

$$

LMZ046-743>745-282000-
SOUTHERN LAKE MICHIGAN

STATION/POSITION TIME  TEMP    WIND        PRES    WAVE
                       AIR SEA DIR/SP/G            HT
                 (UTC) (F)     (DEG/KT/KT) (MB)    (FT)
BURNS HARBOR     1800   86     170/  7/ 11 1015.9S
MICHIGAN CITY    1800   84     120/  7/ 12   N/A
5NW MICH CITY    1800   82 77  170/  2/  2   N/A     0

$$

INZ004-005-014>016-021>024-282000-
NORTH CENTRAL INDIANA

CITY           SKY/WX    TMP DP  RH WIND       PRES   REMARKS
GOSHEN         MOSUNNY   88  68  51 S10G18    30.00F
SOUTH BEND     MOSUNNY   88  66  48 S9        30.00F

$$

INZ006>009-017-018-025>027-282000-
NORTHEAST INDIANA

CITY           SKY/WX    TMP DP  RH WIND       PRES   REMARKS
ANGOLA *+      SUNNY     88  64  45 SE7       30.02F
FORT WAYNE     MOSUNNY   88  69  53 VRB5      30.00F

$$

INZ028-029-035-036-043>045-051>053-282000-
WEST CENTRAL INDIANA

CITY           SKY/WX    TMP DP  RH WIND       PRES   REMARKS
CRAWFORDSVL +  PTSUNNY   86  70  58 SW5       29.95
GREENCASTLE +  MOSUNNY   86  70  58 S3        29.99S
LAFAYETTE      SUNNY     88  73  61 VRB3      29.97F HX  95
TERRE HAUTE    PTSUNNY   91  74  57 SW6       29.97S HX 100

$$

INZ030>032-037>040-046>048-054>057-064-065-282000-
CENTRAL INDIANA

CITY           SKY/WX    TMP DP  RH WIND       PRES   REMARKS
ANDERSON       PTSUNNY   86  64  48 CALM      30.01F
COLUMBUS       PTSUNNY   90  72  55 CALM      29.97F HX  96
GREENWOOD *+   CLOUDY    88  72  58 CALM      29.99F
INDIANAPOLIS   MOSUNNY   91  71  51 VRB3      29.97F HX  97
-EAGLE CREEK   MOSUNNY   90  72  55 VRB3      29.97F HX  97
KOKOMO *+      MOSUNNY   90  72  55 CALM      29.99S HX  96
MT COMFORT *+  SUNNY     88  73  62 SE3       29.99F HX  96
SHELBYVILLE    MOSUNNY   91  74  57 E3        29.98F HX 100

$$

INZ033-034-041-042-049-050-058-059-282000-
EAST CENTRAL INDIANA

CITY           SKY/WX    TMP DP  RH WIND       PRES   REMARKS
MUNCIE         PTSUNNY   84  72  67 NE6       30.00F

$$

INZ060-061-067>069-081>083-085>088-282000-
SOUTHWEST INDIANA

CITY           SKY/WX    TMP DP  RH WIND       PRES   REMARKS
EVANSVILLE     MOSUNNY   91  75  59 W7        29.96F HX 101
HUNTINGBURG *+ MOSUNNY   90  75  62 W8        29.97F HX 100

$$

INZ062-063-066-070>080-084-089>092-282000-
SOUTH CENTRAL AND SOUTHEAST INDIANA

CITY           SKY/WX    TMP DP  RH WIND       PRES   REMARKS
BLOOMINGTON    MOSUNNY   90  74  59 W6        29.98F HX  99
MADISON *+     MOSUNNY   90  70  51 NW3       29.99F HX  95
SEYMOUR +      MOSUNNY   93  73  52 CALM      29.96F HX 102

$$




USA.gov is the U.S. government's official web portal to all federal, state and local government web resources and services.